Spokane Fairchild, WA
on Sunday, November 18, 2012

Sunday
Previous Day Next Day
Daily Summary
 ActualAverage (KGEG)Record (KGEG)
Temperature
Mean Temperature °F 35°F  
Max Temperature 44°F 40°F 65°F (1897)
Min Temperature 32°F 29°F 3°F (1881)
Degree Days
Heating Degree Days 27 30  
Month to date heating degree days 486  
Since 1 July heating degree days 1274  
Cooling Degree Days 0 0  
Month to date cooling degree days 0  
Year to date cooling degree days 450  
Moisture
Dew Point 37°F   
Average Humidity 98    
Maximum Humidity 100    
Minimum Humidity 83    
Precipitation
Precipitation 0.00 in 0.08 in 0.93 in (1955)
Month to date precipitation 1.31  
Year to date precipitation 13.27  
Snow
Snow 0.00 in 0.30 in 5.30 in (1955)
Month to date snowfall 3.1  
Since 1 July snowfall 3.2  
Since 1 September snowfall 3.2  
Snow Depth in   
Wind
Wind Speed 14 mph   
Max Wind Speed 21 mph   
Max Gust Speed 29 mph   
Visibility 10 miles   
Events Rain , Snow   

Key: T is trace of precipitation, MM is missing value
Source: NWS Daily Summary
Time(PST)TemperatureDew PointHumidity Pressure Visibility Wind DirectionWind SpeedGust SpeedPrecipitationEvents Conditions
12:38 AM 37.4°F 37.4°F 100% 29.73 in 10.0 miles SSW 18.4 mph 24.2 mph N/A Snow Light Snow
12:55 AM 37.0°F 37.0°F 100% 29.74 in 10.0 miles SSW 18.4 mph 26.5 mph 0.00 in Snow Light Snow
1:39 AM 37.4°F 37.4°F 100% 29.75 in 10.0 miles SSW 17.3 mph 28.8 mph N/A Snow Light Snow
1:45 AM 37.4°F 37.4°F 100% 29.72 in 10.0 miles SSW 20.7 mph 26.5 mph N/A Snow Light Snow
1:55 AM 37.0°F 37.0°F 100% 29.76 in 10.0 miles SSW 18.4 mph - 0.00 in Snow Light Snow
2:21 AM 37.4°F 37.4°F 100% 29.74 in 10.0 miles SSW 18.4 mph 23.0 mph N/A Snow Light Snow
2:46 AM 35.6°F 35.6°F 100% 29.76 in 10.0 miles SSW 16.1 mph 25.3 mph N/A   Mostly Cloudy
2:51 AM 35.6°F 35.6°F 100% 29.76 in 10.0 miles SSW 15.0 mph - N/A   Mostly Cloudy
2:55 AM 36.0°F 36.0°F 100% 29.81 in 10.0 miles SSW 16.1 mph - 0.00 in   Mostly Cloudy
3:23 AM 35.6°F 35.6°F 100% 29.77 in 10.0 miles SSW 17.3 mph 24.2 mph N/A   Mostly Cloudy
3:24 AM 35.6°F 35.6°F 100% 29.77 in 10.0 miles South 16.1 mph 24.2 mph N/A   Mostly Cloudy
3:27 AM 35.6°F 35.6°F 100% 29.77 in 10.0 miles SSW 15.0 mph 24.2 mph N/A   Mostly Cloudy
3:32 AM 35.6°F 35.6°F 100% 29.77 in 10.0 miles South 12.7 mph - N/A   Scattered Clouds
3:36 AM 35.6°F 35.6°F 100% 29.78 in 10.0 miles South 15.0 mph - N/A   Scattered Clouds
3:45 AM 35.6°F 35.6°F 100% 29.78 in 10.0 miles South 11.5 mph - N/A   Partly Cloudy
3:54 AM 35.6°F 35.6°F 100% 29.79 in 10.0 miles South 13.8 mph - N/A   Partly Cloudy
3:58 AM 35.6°F 35.6°F 100% 29.79 in 10.0 miles South 11.5 mph - 0.00 in   Partly Cloudy
4:04 AM 33.8°F 33.8°F 100% 29.80 in 10.0 miles South 16.1 mph 19.6 mph N/A   Scattered Clouds
4:05 AM 33.8°F 33.8°F 100% 29.80 in 10.0 miles South 12.7 mph 19.6 mph N/A   Partly Cloudy
4:40 AM 33.8°F 33.8°F 100% 29.82 in 10.0 miles South 11.5 mph - N/A   Mostly Cloudy
4:50 AM 32.0°F 32.0°F 100% 29.83 in 10.0 miles South 12.7 mph - N/A   Scattered Clouds
4:55 AM 32.0°F 32.0°F 100% 29.83 in 10.0 miles South 12.7 mph - N/A   Mostly Cloudy
4:58 AM 33.6°F 33.6°F 100% 29.83 in 10.0 miles South 11.5 mph - 0.00 in   Mostly Cloudy
5:08 AM 32.0°F 32.0°F 100% 29.82 in 10.0 miles SSW 11.5 mph - N/A   Scattered Clouds
5:58 AM 33.1°F 33.1°F 100% 29.84 in 10.0 miles South 11.5 mph - N/A   Clear
6:00 AM 32.0°F 32.0°F 100% 29.84 in 10.0 miles South 12.7 mph - N/A   Clear
6:21 AM 33.8°F 33.8°F 100% 29.84 in 10.0 miles South 11.5 mph - N/A   Clear
6:58 AM 33.8°F 33.8°F 100% 29.84 in 10.0 miles South 12.7 mph - 0.00 in   Clear
7:57 AM 33.8°F 33.8°F 100% 29.85 in 10.0 miles South 8.1 mph - N/A   Clear
7:58 AM 34.0°F 34.0°F 100% 29.85 in 10.0 miles South 8.1 mph - N/A   Clear
8:16 AM 35.6°F 35.6°F 100% 29.86 in 10.0 miles South 8.1 mph - N/A   Partly Cloudy
8:57 AM 37.4°F 37.4°F 100% 29.86 in 10.0 miles South 10.4 mph - N/A   Clear
8:58 AM 36.9°F 36.9°F 100% 29.91 in 10.0 miles South 10.4 mph - 0.00 in   Clear
9:13 AM 37.4°F 37.4°F 100% 29.87 in 10.0 miles South 13.8 mph - N/A   Scattered Clouds
9:58 AM 37.8°F 37.8°F 100% 29.93 in 10.0 miles South 12.7 mph - 0.00 in   Scattered Clouds
10:58 AM 39.9°F 39.9°F 100% 29.94 in 10.0 miles South 10.4 mph - N/A   Mostly Cloudy
11:55 AM 41.0°F 41.0°F 100% 29.87 in 10.0 miles South 11.5 mph 18.4 mph N/A   Clear
12:58 PM 42.1°F 41.5°F 98% 29.87 in 10.0 miles SSE 9.2 mph - N/A   Partly Cloudy
1:58 PM 44.2°F 39.4°F 83% 29.86 in 10.0 miles SSE 10.4 mph - N/A   Clear
2:58 PM 43.0°F 40.1°F 90% 29.86 in 10.0 miles SSE 9.2 mph - N/A   Overcast
3:58 PM 41.9°F 40.8°F 96% 29.91 in 10.0 miles SSE 8.1 mph - N/A   Mostly Cloudy
4:58 PM 41.5°F 40.1°F 95% 29.92 in 10.0 miles SE 9.2 mph - N/A   Overcast
5:58 PM 39.9°F 39.9°F 100% 29.92 in 10.0 miles SE 10.4 mph - N/A   Mostly Cloudy
6:47 PM 39.2°F 39.2°F 100% 29.84 in 10.0 miles SSE 8.1 mph - N/A   Partly Cloudy
6:55 PM 39.2°F 39.2°F 100% 29.84 in 10.0 miles SE 8.1 mph - N/A   Clear
7:58 PM 39.0°F 39.0°F 100% 29.86 in 10.0 miles SSE 11.5 mph - N/A   Clear
8:21 PM 39.2°F 39.2°F 100% 29.81 in 10.0 miles SSE 11.5 mph - N/A   Clear
8:33 PM 39.2°F 39.2°F 100% 29.82 in 10.0 miles SSE 11.5 mph - N/A   Clear
8:40 PM 39.2°F 39.2°F 100% 29.81 in 10.0 miles SSE 12.7 mph - N/A   Clear
8:58 PM 40.3°F 39.2°F 96% 29.87 in 10.0 miles SSE 13.8 mph - 0.00 in   Scattered Clouds
8:59 PM 41.0°F 39.2°F 93% 29.82 in 10.0 miles SSE 13.8 mph - N/A   Scattered Clouds
9:13 PM 41.0°F 39.2°F 93% 29.82 in 10.0 miles SSE 12.7 mph - N/A   Mostly Cloudy
9:22 PM 41.0°F 39.2°F 93% 29.81 in 10.0 miles SSE 15.0 mph - N/A   Mostly Cloudy
9:31 PM 41.0°F 39.2°F 93% 29.81 in 10.0 miles SSE 15.0 mph - N/A   Scattered Clouds
9:45 PM 41.0°F 39.2°F 93% 29.82 in 10.0 miles SSE 13.8 mph - N/A   Partly Cloudy
9:58 PM 40.1°F 38.7°F 95% 29.87 in 10.0 miles SSE 12.7 mph - 0.00 in   Clear
10:28 PM 41.0°F 39.2°F 93% 29.83 in 10.0 miles SSE 15.0 mph - N/A Rain Light Rain
10:58 PM 40.3°F 39.4°F 97% 29.86 in 10.0 miles South 15.0 mph 26.5 mph 0.00 in Rain Light Rain
11:08 PM 41.0°F 39.2°F 93% 29.83 in 10.0 miles South 12.7 mph - N/A   Mostly Cloudy
11:15 PM 41.0°F 41.0°F 100% 29.83 in 10.0 miles South 11.5 mph - N/A Rain Light Rain
11:35 PM 39.2°F 39.2°F 100% 29.83 in 10.0 miles South 12.7 mph - N/A Rain Light Rain
11:40 PM 39.2°F 39.2°F 100% 29.83 in 10.0 miles South 12.7 mph - N/A Rain Light Rain
11:45 PM 39.2°F 39.2°F 100% 29.83 in 10.0 miles South 16.1 mph - N/A Rain Light Rain
11:58 PM 39.2°F 39.2°F 100% 29.86 in 10.0 miles SSE 12.7 mph 23.0 mph 0.00 in Rain Light Rain
Moon Phase
Nov. 18 Nov. 20 Nov. 28 Dec. 06 Dec. 13
Sunrise:07:01 AM (PST) Moon Rise:11:26 AM (PST)11/18
Sunset:04:10 PM (PST) Moon Set:09:42 PM (PST)11/18

Copyright © 2014 The Weather Underground, Inc.